COSMOS 2251 DEB, 34965

Orbit data source: Space-Track

COSMOS 2251 DEB, 34965 is space debris in LEO originally from a launch on Wed, 16 Jun 1993 UTC launched from the Plesetsk Missile And Space Complex (PKMTR). The debris from Iridium 33, an American commercial communications satellite, has been tracked extensively since its accidental collision with the defunct Russian satellite Cosmos 2251 in 2009. This event, occurring at high speed in low Earth orbit (LEO), generated thousands of pieces of space debris, significantly increasing the risk of further collisions. The Iridium 33 debris cloud has impacted space traffic management and orbital debris mitigation strategies, making it a subject of ongoing study in space situational awareness.

Loading next visibility...
Identifier
34965, 1993-036AEU
Orbit
LEO
Country
Flag of CISCIS
Related business
Manufacturer
Unknown
Mission
Spacecraft
Bus & Motor
Unknown
Mass
Unknown
Launch date (UTC)
1993-06-16 (33 years ago)
Launch vehicle
Unknown
Launch site
Plesetsk Missile And Space Complex (PKMTR)
Object type
Payload
Rocket body
Debris
Shape & HBR
Unknown shape, 0.1 m
Radar Cross Section
Small (<0.1 m²)

Expand to show TLE details & history
Last TLE update: 15 hours ago

TLE from 15 hours ago
0 COSMOS 2251 DEB
1 34965U 93036AEU 25351.62756900  .00001082  00000-0  29309-3 0  9996
2 34965  74.0515 119.3168 0026453 245.8821 113.9572 14.48719577871849
Epoch: 2025-12-17T15:03Z
TLE epoch observation values (Epoch: 2025-12-17T15:03:41.961Z)
Latitude
-0.00001°
Longitude
166.89725°
Altitude
740.139 km
Speed
7.481 km/s
True Right ascension
07h 57m 16s
True Declination
0° 00' 00"
Sunlit
Object was in full shadow at epoch
Visualization orbit readout
Latitude
Unknown
Longitude
Unknown
Altitude
Unknown
Speed
Unknown
Apparent Right ascension
Unknown
Apparent Declination
Unknown
Sunlit
N/A
Visualization observer readout
Local Sidereal Time
04:36:25
Azimuth
Unknown
Elevation
Unknown
Doppler factor
Unknown
Orbital elements
Apogee altitude
746.239 km
Perigee altitude
708.646 km
Semi-major axis
7,105.579 km
Eccentricity
0.00265
Inclination
74.0515°
RAAN
119.3168°
Arg. of periapsis
245.8821°
True anomaly
114.23384°
Mean anomaly
113.9572°
Eccentric anomaly
114.09556°
Mean motion
3.62363 °/min
Orbital period
99.35 mins
BSTAR
0.00029309

Documentation

Showing up to 5 results
|